FW4287 Weather Reports


time (UTC)temp
C
wind
direction
speed
KPH
gust
KPH
rain 1hr
cm
rain 24hr
cm
rain mn
cm
humidity
%
barometer
mb
20211026173038 7 282 4.8 0.0 0.00 0.23 0.05 95 1010.0
20211026173036 7 282 4.8 6.4 0.00 0.23 0.00 95 1010.0
20211026171540 7 298 3.2 0.0 0.00 0.23 0.05 95 1010.0
20211026171536 7 298 3.2 6.4 0.00 0.23 0.00 95 1010.0
20211026170044 7 300 1.6 0.0 0.00 0.23 0.05 95 1010.0
20211026170042 7 300 1.6 9.7 0.00 0.23 0.00 95 1010.0
20211026164535 7 277 1.6 0.0 0.00 0.23 0.05 96 1010.0
20211026163038 6 292 0.0 0.0 0.00 0.23 0.05 97 1009.6
20211026163035 6 292 0.0 0.0 0.00 0.23 0.00 97 1009.9
20211026161536 6 193 0.0 0.0 0.00 0.23 0.05 97 1010.0
20211026161532 6 193 0.0 1.6 0.00 0.23 0.00 97 1010.1
20211026160036 6 151 1.6 4.8 0.00 0.23 0.00 97 1010.0
20211026154531 5 324 0.0 4.8 0.00 0.23 0.00 96 1009.7
20211026153110 5 89 1.6 0.0 0.00 0.23 0.05 96 1009.6
20211026153107 5 67 0.0 1.6 0.00 0.23 0.00 95 1009.7
20211026151529 5 67 0.0 0.0 0.00 0.23 0.05 95 1009.6
20211026150041 5 69 3.2 0.0 0.00 0.23 0.05 94 1009.6
20211026150038 5 69 3.2 6.4 0.00 0.23 0.00 94 1009.9
20211026144608 6 47 1.6 0.0 0.00 0.23 0.05 93 1009.6
20211026144604 6 70 3.2 6.4 0.00 0.23 0.00 91 1009.9
20211026143105 6 70 3.2 6.4 0.00 0.23 0.00 91 1009.9
20211026141538 6 65 3.2 0.0 0.00 0.23 0.05 89 1010.0
20211026141534 6 65 3.2 6.4 0.00 0.23 0.00 89 1010.0
20211026140033 7 203 3.2 0.0 0.00 0.23 0.05 87 1009.6
20211026134534 6 212 4.8 0.0 0.00 0.23 0.05 90 1009.6
20211026133037 6 204 4.8 0.0 0.00 0.23 0.05 92 1009.6
20211026133035 6 204 3.2 8.0 0.00 0.23 0.00 92 1009.6
20211026131537 6 204 3.2 0.0 0.00 0.23 0.05 92 1009.6
20211026131533 6 192 3.2 6.4 0.00 0.23 0.00 92 1009.6
20211026130034 6 192 3.2 0.0 0.00 0.23 0.05 92 1009.6
20211026124532 6 213 3.2 0.0 0.00 0.23 0.05 93 1009.6
20211026123040 6 199 3.2 0.0 0.00 0.23 0.05 92 1009.6
20211026123038 6 199 3.2 8.0 0.00 0.23 0.00 92 1009.7
20211026121611 6 211 4.8 11.3 0.00 0.23 0.00 93 1009.6
20211026121608 6 211 4.8 0.0 0.00 0.23 0.05 93 1009.6
20211026120041 5 218 4.8 0.0 0.00 0.23 0.05 97 1009.3
20211026120039 5 218 4.8 11.3 0.00 0.23 0.00 97 1009.4
20211026114648 5 197 0.0 0.0 0.00 0.23 0.05 98 1009.3
20211026113036 5 203 1.6 0.0 0.00 0.23 0.05 98 1008.9
20211026113033 5 203 1.6 9.7 0.00 0.23 0.00 98 1009.2
20211026111608 5 212 3.2 0.0 0.00 0.23 0.05 98 1008.9
20211026111606 5 212 3.2 9.7 0.00 0.23 0.00 98 1009.0
20211026110044 5 203 3.2 0.0 0.00 0.23 0.05 98 1008.9
20211026110041 5 203 3.2 8.0 0.00 0.23 0.00 98 1009.0
20211026104535 5 198 0.0 0.0 0.03 0.23 0.05 98 1008.9
20211026103104 5 133 0.0 3.2 0.03 0.23 0.00 97 1008.9
20211026101608 5 133 0.0 0.0 0.03 0.23 0.05 97 1008.5
20211026100038 4 87 0.0 0.0 0.03 0.23 0.05 97 1008.5
20211026094533 4 22 0.0 0.0 0.00 0.20 0.03 97 1008.5
20211026094531 4 22 0.0 0.0 0.00 0.20 0.00 97 1008.8
20211026093038 5 69 0.0 0.0 0.00 0.20 0.03 97 1008.5
20211026093035 5 69 0.0 4.8 0.00 0.20 0.00 97 1008.6
20211026091609 5 24 0.0 0.0 0.00 0.20 0.03 97 1008.5
20211026090108 5 81 0.0 0.0 0.00 0.20 0.03 96 1008.5
20211026084606 5 112 3.2 8.0 0.00 0.20 0.00 96 1008.4
20211026084603 5 112 3.2 0.0 0.00 0.20 0.03 96 1008.2
20211026083033 5 155 3.2 8.0 0.00 0.20 0.00 95 1008.2
20211026081637 5 164 3.2 0.0 0.00 0.20 0.03 93 1007.8
20211026081634 5 95 1.6 6.4 0.00 0.20 0.00 91 1007.8
20211026080037 5 95 1.6 0.0 0.00 0.20 0.03 91 1007.5
20211026074537 6 190 1.6 0.0 0.03 0.20 0.03 91 1007.8
20211026073029 5 207 6.4 0.0 0.03 0.20 0.03 94 1007.8
20211026071527 5 182 3.2 0.0 0.03 0.20 0.03 94 1007.8
20211026070037 5 186 3.2 0.0 0.05 0.20 0.03 92 1007.8
20211026070035 5 186 3.2 6.4 0.05 0.20 0.00 92 1008.1
20211026064531 6 171 3.2 6.4 0.03 0.18 0.00 90 1008.3
20211026063105 7 213 8.0 19.3 0.03 0.18 0.00 88 1008.1
20211026061536 7 213 8.0 0.0 0.03 0.18 0.18 88 1007.8
20211026061532 7 213 8.0 19.3 0.03 0.18 0.00 88 1008.1
20211026060151 7 212 8.0 0.0 0.00 0.15 0.15 88 1007.8
20211026060148 7 212 8.0 19.3 0.00 0.15 0.00 88 1007.8
20211026054534 7 221 8.0 0.0 0.00 0.15 0.15 88 1007.5
20211026053107 7 203 6.4 0.0 0.00 0.15 0.15 89 1007.8
20211026053104 7 188 6.4 14.5 0.00 0.15 0.00 90 1007.7
20211026051532 7 188 6.4 0.0 0.00 0.15 0.15 90 1007.5
20211026050040 6 195 4.8 0.0 0.00 0.15 0.15 93 1007.5
20211026050037 6 195 4.8 17.7 0.00 0.15 0.00 93 1007.6
20211026044539 6 171 3.2 0.0 0.00 0.15 0.15 92 1007.1
20211026044533 7 181 3.2 8.0 0.00 0.15 0.00 92 1007.3
20211026043037 7 181 3.2 0.0 0.00 0.15 0.15 92 1007.1
20211026043035 7 181 3.2 8.0 0.00 0.15 0.00 92 1007.3
20211026041532 6 188 3.2 0.0 0.00 0.15 0.15 95 1006.8
20211026040043 6 134 0.0 0.0 0.00 0.15 0.15 96 1006.8
20211026040040 6 134 0.0 8.0 0.00 0.15 0.00 96 1006.8
20211026034537 6 227 1.6 0.0 0.00 0.15 0.15 95 1006.4
20211026034534 6 227 1.6 8.0 0.00 0.15 0.00 95 1006.6
20211026033036 6 118 0.0 0.0 0.00 0.15 0.15 94 1006.1
20211026033033 6 118 0.0 3.2 0.00 0.15 0.00 94 1006.3
20211026031546 7 142 1.6 4.8 0.03 0.15 0.00 94 1006.1
20211026031535 7 192 4.8 0.0 0.03 0.15 0.15 95 1005.7
20211026030035 7 192 4.8 0.0 0.03 0.15 0.15 95 1005.7
20211026030032 7 192 4.8 12.9 0.03 0.15 0.00 95 1005.9
20211026024534 6 220 1.6 0.0 0.03 0.15 0.15 96 1005.4
20211026023038 6 211 1.6 0.0 0.05 0.15 0.15 96 1005.0
20211026023036 6 211 1.6 8.0 0.05 0.15 0.00 96 1005.3
20211026021531 7 88 0.0 0.0 0.05 0.13 0.13 95 1005.0
20211026020148 7 153 0.0 4.8 0.08 0.13 0.00 94 1005.1
20211026014535 7 188 1.6 6.4 0.10 0.13 0.00 94 1005.1
20211026014533 7 188 1.6 0.0 0.10 0.13 0.13 94 1005.0
20211026013039 7 170 3.2 0.0 0.08 0.10 0.10 92 1004.6
20211026013036 7 170 3.2 8.0 0.08 0.10 0.00 92 1005.0
20211026011535 7 167 3.2 0.0 0.05 0.08 0.08 91 1004.6
20211026010040 7 159 4.8 0.0 0.03 0.05 0.05 89 1004.3
20211026010038 7 159 4.8 8.0 0.03 0.05 0.00 89 1004.6
20211026004533 8 177 4.8 0.0 0.00 0.08 0.03 86 1004.3
20211026003038 8 215 9.7 0.0 0.03 0.08 0.03 86 1003.9
20211026003035 8 215 9.7 19.3 0.03 0.08 0.00 86 1004.2
20211026001533 8 206 6.4 12.9 0.03 0.08 0.00 86 1003.9
20211026000035 8 206 6.4 0.0 0.03 0.08 0.03 86 1003.6
20211025234534 8 239 4.8 0.0 0.03 0.15 0.03 90 1003.6
20211025233036 8 34 1.6 8.0 0.00 0.20 0.00 88 1003.7
20211025231530 8 34 1.6 8.0 0.00 0.23 0.00 88 1003.7
20211025230041 8 11 4.8 0.0 0.00 0.23 0.00 87 1003.2
20211025230039 8 11 4.8 9.7 0.00 0.23 0.00 87 1003.3
20211025224533 9 29 3.2 0.0 0.00 0.23 0.00 85 1002.9
20211025223040 9 30 3.2 0.0 0.00 0.23 0.00 84 1002.9
20211025223037 9 30 3.2 9.7 0.00 0.23 0.00 84 1003.0
20211025221606 10 11 4.8 0.0 0.00 0.23 0.00 83 1002.5
20211025220038 10 35 3.2 0.0 0.00 0.23 0.00 81 1002.5
20211025220036 10 35 3.2 8.0 0.00 0.23 0.00 81 1002.6
20211025214646 10 26 4.8 0.0 0.00 0.23 0.00 79 1002.2
20211025213039 10 357 4.8 0.0 0.00 0.23 0.00 78 1001.8
20211025211535 10 1 4.8 0.0 0.00 0.23 0.00 79 1001.8
20211025211533 10 1 4.8 9.7 0.00 0.23 0.00 79 1001.8
20211025210038 10 14 3.2 0.0 0.00 0.23 0.00 84 1001.5
20211025210035 10 14 3.2 11.3 0.00 0.23 0.00 84 1001.8
20211025204538 9 1 1.6 0.0 0.00 0.23 0.00 86 1001.5
20211025204533 9 1 1.6 4.8 0.00 0.23 0.00 86 1001.7
20211025203034 9 46 4.8 0.0 0.00 0.23 0.00 86 1001.5
20211025201532 9 53 3.2 0.0 0.00 0.23 0.00 84 1001.5
20211025201530 9 53 3.2 9.7 0.00 0.23 0.00 84 1001.6
20211025200147 9 126 0.0 3.2 0.00 0.25 0.00 85 1001.5
20211025194609 8 246 1.6 0.0 0.00 0.30 0.00 88 1001.1
20211025193032 8 159 1.6 4.8 0.00 0.41 0.00 90 1001.2
20211025191531 8 357 3.2 0.0 0.00 0.56 0.00 88 1000.7
20211025191529 8 357 3.2 8.0 0.00 0.56 0.00 88 1001.1
20211025190109 7 47 0.0 3.2 0.00 0.61 0.00 89 1001.0
20211025184531 7 47 0.0 3.2 0.00 0.66 0.00 89 1001.0
20211025183035 7 72 0.0 0.0 0.00 0.66 0.00 91 1000.4
20211025183032 7 72 0.0 4.8 0.00 0.66 0.00 91 1000.6
20211025181530 7 239 0.0 4.8 0.00 0.76 0.00 92 1000.4
20211025180035 6 299 1.6 0.0 0.00 0.79 0.00 93 1000.0
20211025174536 6 300 1.6 0.0 0.00 0.79 0.00 94 1000.0
20211025174532 6 7 0.0 3.2 0.00 0.79 0.00 95 1000.0